Weather History for Tallahassee, FL

Change the Weather History Date:

Thursday, December 20, 2012

  Actual Average Record
Temperature  
Mean Temperature 58 °F 52 °F  
Max Temperature 74 °F 64 °F 81 °F (1967)
Min Temperature 41 °F 40 °F 15 °F (1981)
Degree Days  
Heating Degree Days 7    
Month to date heating degree days 95  
Since 1 July heating degree days 353  
Cooling Degree Days 0    
Month to date cooling degree days 18  
Year to date cooling degree days 2976  
Growing Degree Days 7 (Base 50)    
Moisture  
Dew Point 53 °F    
Average Humidity 75    
Maximum Humidity 100    
Minimum Humidity 50    
Precipitation  
Precipitation 0.70 in 0.13 in 1.48 in (1974)
Month to date precipitation 2.11 2.54  
Year to date precipitation 58.15 57.87  
Sea Level Pressure  
Sea Level Pressure 29.95 in    
Wind  
Wind Speed 8 mph (SSW)    
Max Wind Speed 28 mph    
Max Gust Speed 36 mph    
Visibility 7 miles    
Events Fog , Rain    
T = Trace of Precipitation, MM = Missing Value Source: NWS Daily Summary

Daily Weather History Graph

Daily Weather History Graph

Search for Another Location

Airport:

Trip Planner

Search our weather history database for the weather conditions in past years. The results will help you decide how hot, cold, wet, or windy it might be!

Date:

Astronomy

Dec. 20, 2012 Rise Set
Actual Time 7:29 AM EST 5:40 PM EST
Civil Twilight 7:03 AM EST 6:07 PM EST
Nautical Twilight 6:33 AM EST 6:37 PM EST
Astronomical Twilight 6:03 AM EST 7:06 PM EST
Moon 12:38 PM EST (12/20) 12:37 AM EST (12/20)
Length of Visible Light 11h 04m
Length of Day
10h 11m
First Quarter, 55% of the Moon is Illuminated
Dec 20
First Quarter
Dec 28
Full
Jan 4
Last Quarter
Jan 11
New
Jan 18
First Quarter

Hourly Weather History & Observations

Time (EST) Temp. Dew Point Humidity Pressure Visibility Wind Dir Wind Speed Gust Speed Precip Events Conditions
12:53 AM 42.1 °F 37.9 °F 85% 30.06 in 10.0 mi Calm Calm - N/A   Clear
1:53 AM 41.0 °F 37.0 °F 86% 30.06 in 10.0 mi Calm Calm - N/A   Clear
2:53 AM 41.0 °F 37.0 °F 86% 30.05 in 10.0 mi Calm Calm - N/A   Clear
3:53 AM 42.1 °F 37.9 °F 85% 30.03 in 10.0 mi Calm Calm - N/A   Clear
4:53 AM 44.1 °F 39.9 °F 85% 30.04 in 10.0 mi Calm Calm - N/A   Clear
5:53 AM 44.1 °F 39.9 °F 85% 30.03 in 10.0 mi Calm Calm - N/A   Clear
6:53 AM 48.0 °F 45.0 °F 89% 30.00 in 10.0 mi ESE 4.6 mph - N/A   Clear
7:20 AM 48.2 °F 46.4 °F 93% 29.99 in 10.0 mi ESE 4.6 mph - N/A   Partly Cloudy
7:33 AM 48.2 °F 46.4 °F 93% 30.00 in 10.0 mi ESE 3.5 mph - N/A   Mostly Cloudy
7:46 AM 50.0 °F 46.4 °F 87% 29.99 in 2.0 mi ESE 5.8 mph - N/A   Overcast
7:53 AM 50.0 °F 46.9 °F 89% 29.99 in 1.0 mi ESE 6.9 mph - N/A   Overcast
8:07 AM 50.0 °F 48.2 °F 94% 30.00 in 0.5 mi Calm Calm - N/A   Overcast
8:30 AM 51.8 °F 48.2 °F 88% 30.00 in 0.5 mi Calm Calm - N/A   Overcast
8:37 AM 51.8 °F 48.2 °F 88% 30.00 in 0.2 mi Calm Calm - N/A Fog Fog
8:50 AM 51.8 °F 50.0 °F 94% 30.00 in 0.2 mi Calm Calm - N/A Fog Fog
8:53 AM 52.0 °F 51.1 °F 97% 30.01 in 0.2 mi Calm Calm - N/A Fog Fog
9:30 AM 53.6 °F 51.8 °F 94% 30.01 in 0.2 mi Calm Calm - N/A Fog Fog
9:42 AM 53.6 °F 51.8 °F 94% 30.01 in 0.2 mi SE 3.5 mph - N/A Fog Fog
9:53 AM 55.0 °F 53.1 °F 93% 30.00 in 0.2 mi SSE 3.5 mph - N/A Fog Fog
10:11 AM 57.2 °F 55.4 °F 94% 29.99 in 3.0 mi SSE 4.6 mph - N/A   Mostly Cloudy
10:26 AM 60.8 °F 57.2 °F 88% 29.99 in 10.0 mi South 4.6 mph - N/A   Scattered Clouds
10:40 AM 62.6 °F 59.0 °F 88% 30.00 in 10.0 mi SW 5.8 mph - N/A   Mostly Cloudy
10:53 AM 64.9 °F 59.0 °F 81% 30.01 in 10.0 mi SW 4.6 mph - N/A   Overcast
11:09 AM 66.2 °F 59.0 °F 78% 29.99 in 10.0 mi South 4.6 mph - N/A   Overcast
11:46 AM 71.6 °F 60.8 °F 69% 29.96 in 10.0 mi South 9.2 mph - N/A   Overcast
11:53 AM 71.1 °F 61.0 °F 70% 29.95 in 10.0 mi SSE 13.8 mph 18.4 mph N/A   Overcast
12:53 PM 73.0 °F 63.0 °F 71% 29.88 in 10.0 mi South 15.0 mph 23.0 mph N/A   Overcast
1:53 PM 71.1 °F 63.0 °F 75% 29.86 in 10.0 mi SSE 10.4 mph - N/A   Overcast
2:20 PM 69.8 °F 62.6 °F 78% 29.84 in 10.0 mi South 12.7 mph - N/A   Overcast
2:53 PM 70.0 °F 64.9 °F 84% 29.82 in 9.0 mi South 10.4 mph 18.4 mph 0.00 in Rain Light Rain
3:32 PM 69.8 °F 66.2 °F 88% 29.81 in 1.0 mi South 9.2 mph - N/A Rain Heavy Rain
3:53 PM 70.0 °F 66.9 °F 90% 29.81 in 1.0 mi South 18.4 mph 26.5 mph 0.29 in Rain Rain
4:53 PM 70.0 °F 64.9 °F 84% 29.82 in 1.0 mi SW 11.5 mph 24.2 mph 0.39 in Rain Light Rain
5:08 PM 69.8 °F 64.4 °F 83% 29.82 in 3.0 mi SW 8.1 mph - 0.01 in Rain Light Rain
5:53 PM 69.1 °F 64.9 °F 87% 29.83 in 10.0 mi SW 12.7 mph - 0.02 in   Overcast
6:27 PM 69.8 °F 66.2 °F 88% 29.85 in 10.0 mi WSW 9.2 mph - N/A   Overcast
6:46 PM 69.8 °F 64.4 °F 83% 29.86 in 10.0 mi SW 10.4 mph - N/A   Overcast
6:53 PM 69.1 °F 64.9 °F 87% 29.86 in 10.0 mi WSW 10.4 mph - N/A   Overcast
6:58 PM 69.8 °F 64.4 °F 83% 29.86 in 10.0 mi WSW 12.7 mph - N/A   Overcast
7:30 PM 62.6 °F 51.8 °F 68% 29.89 in 10.0 mi NW 18.4 mph - 0.00 in   Overcast
7:46 PM 60.8 °F 51.8 °F 72% 29.90 in 10.0 mi WNW 13.8 mph - 0.00 in   Scattered Clouds
7:53 PM 61.0 °F 50.0 °F 67% 29.91 in 10.0 mi WNW 13.8 mph 21.9 mph 0.00 in   Partly Cloudy
8:53 PM 59.0 °F 46.0 °F 62% 29.95 in 10.0 mi WNW 13.8 mph - N/A   Partly Cloudy
9:53 PM 57.9 °F 41.0 °F 53% 29.99 in 10.0 mi WNW 16.1 mph 27.6 mph N/A   Clear
10:53 PM 54.0 °F 36.0 °F 51% 30.03 in 10.0 mi NW 18.4 mph 27.6 mph N/A   Clear
11:53 PM 51.1 °F 33.1 °F 50% 30.06 in 10.0 mi NW 11.5 mph - N/A   Clear